WetterOnline ( https://www.wetteronline.de )

Wetter aktuell Sonneberg

Aktuelles Wetter: Coburg (323m)

6-stündlich | Neueste Meldungen
Ortszeit Temperatur Wetter
Mo, 17.06. 20:00 20.0° C bedeckt
Mo, 17.06. 14:00 20.1° C wolkig
Mo, 17.06. 8:00 14.2° C leichter Regen
Mo, 17.06. 2:00 14.0° C bedeckt
So, 16.06. 20:00 19.7° C bedeckt
So, 16.06. 14:00 20.0° C bewölkt
So, 16.06. 8:00 13.2° C leicht bewölkt
So, 16.06. 2:00 11.5° C wolkenlos
Ortszeit Temperatur Wetter
Di, 18.06. 0:00 14.7° C fast wolkenlos
Mo, 17.06. 23:50 14.7° C fast wolkenlos
Mo, 17.06. 23:40 14.9° C leicht bewölkt
Mo, 17.06. 23:30 15.6° C fast wolkenlos
Mo, 17.06. 23:20 15.6° C fast wolkenlos
Mo, 17.06. 23:10 15.2° C fast wolkenlos
Mo, 17.06. 23:00 16.9° C fast wolkenlos
Mo, 17.06. 22:30 16.0° C wolkig
Mo, 17.06. 22:00 17.7° C bedeckt
Mo, 17.06. 21:30 18.8° C bedeckt
Mo, 17.06. 21:00 19.2° C bedeckt
Ortszeit Relative Feuchte Sichtweite
Mo, 17.06. 20:00 68% >70 km
Mo, 17.06. 14:00 69% 40 km
Mo, 17.06. 8:00 94% 26 km
Mo, 17.06. 2:00 87% 55 km
So, 16.06. 20:00 55% 60 km
So, 16.06. 14:00 52% 65 km
So, 16.06. 8:00 72% 55 km
So, 16.06. 2:00 79% 60 km
Ortszeit Relative Feuchte Sichtweite
Di, 18.06. 0:00 91% 55 km
Mo, 17.06. 23:50 91% -
Mo, 17.06. 23:40 91% -
Mo, 17.06. 23:30 88% 50 km
Mo, 17.06. 23:20 88% -
Mo, 17.06. 23:10 89% -
Mo, 17.06. 23:00 83% 65 km
Mo, 17.06. 22:30 87% >70 km
Mo, 17.06. 22:00 79% 55 km
Mo, 17.06. 21:30 76% >70 km
Mo, 17.06. 21:00 74% >70 km
Ortszeit Niederschlagsmenge Niederschlagsart
Mo, 17.06. 20:00 13 l/m2 in 12 Std. -
Mo, 17.06. 14:00 13 l/m2 in 6 Std. Regen
Mo, 17.06. 8:00 3 l/m2 in 12 Std. Regen
Mo, 17.06. 2:00 0.1 l/m2 in 6 Std. Regen
So, 16.06. 20:00 0.1 l/m2 in 12 Std. Regen
So, 16.06. 14:00 0.0 l/m2 in 6 Std. -
So, 16.06. 8:00 0.0 l/m2 in 12 Std. -
So, 16.06. 2:00 0.0 l/m2 in 6 Std. -
Ortszeit Niederschlagsmenge Niederschlagsart
Di, 18.06. 0:00 0.0 l/m2 in 1 Std. -
Mo, 17.06. 23:50 keine Meldung -
Mo, 17.06. 23:40 keine Meldung -
Mo, 17.06. 23:30 0.0 l/m2 in 30 Min -
Mo, 17.06. 23:20 keine Meldung -
Mo, 17.06. 23:10 keine Meldung -
Mo, 17.06. 23:00 0.0 l/m2 in 1 Std. -
Mo, 17.06. 22:30 0.0 l/m2 in 30 Min -
Mo, 17.06. 22:00 0.0 l/m2 in 1 Std. -
Mo, 17.06. 21:30 0.0 l/m2 in 30 Min -
Mo, 17.06. 21:00 0.0 l/m2 in 1 Std. -
Ortszeit Stärke Spitze Richtung
km/h Bft. km/h Grad Sektor
Mo, 17.06. 20:00 7 2 40 270° W
Mo, 17.06. 14:00 24 4 31 240° SW
Mo, 17.06. 8:00 6 1 13 160° S
Mo, 17.06. 2:00 4 1 14 350° N
So, 16.06. 20:00 11 2 36 270° W
So, 16.06. 14:00 18 3 36 220° SW
So, 16.06. 8:00 9 2 17 100° O
So, 16.06. 2:00 4 1 25 60° NO
Ortszeit Stärke Spitze Richtung
km/h Bft. km/h Grad Sektor
Di, 18.06. 0:00 4 1 11 360° N
Mo, 17.06. 23:50 4 1 - 360° N
Mo, 17.06. 23:40 6 1 - 360° N
Mo, 17.06. 23:30 4 1 7 20° N
Mo, 17.06. 23:20 4 1 - 20° N
Mo, 17.06. 23:10 4 1 - 20° N
Mo, 17.06. 23:00 6 1 7 230° SW
Mo, 17.06. 22:30 4 1 7 320° NW
Mo, 17.06. 22:00 6 1 9 260° W
Mo, 17.06. 21:30 4 1 11 260° W
Mo, 17.06. 21:00 6 1 13 240° SW
Ortszeit Untergrenze Bedeckung Gattung
total tief tief mittel hoch
Mo, 17.06. 20:00 2400 m 8/8 8/8 - - -
Mo, 17.06. 14:00 900 m 8/8 1/8 - - -
Mo, 17.06. 8:00 120 m 8/8 8/8 - - -
Mo, 17.06. 2:00 1500 m 8/8 8/8 - - -
So, 16.06. 20:00 1500 m 8/8 8/8 - - -
So, 16.06. 14:00 1350 m 7/8 7/8 - - -
So, 16.06. 8:00 9000 m 6/8 0/8 - - -
So, 16.06. 2:00 - 0/8 0/8 - - -
Ortszeit Bedeckungsgrad in Achtel und Wolkenuntergrenze
Di, 18.06. 0:00 1(9000m)
Mo, 17.06. 23:50 1(9000m)
Mo, 17.06. 23:40 2
Mo, 17.06. 23:30 1(10500m)
Mo, 17.06. 23:20 1(10500m)
Mo, 17.06. 23:10 1
Mo, 17.06. 23:00 1(9000m)
Mo, 17.06. 22:30 1(6600m) 7(9000m) 7(9000m)
Mo, 17.06. 22:00 8(6600m) 8(9000m)
Mo, 17.06. 21:30 2(5100m) 8(6000m) 8(9000m)
Mo, 17.06. 21:00 5(3000m) 8(4800m)
Ortszeit Luftdruck NN (hPa) Tendenz (hPa in 3 Std.)
Mo, 17.06. 20:00 1014 + 0,1
Mo, 17.06. 14:00 1014 + 0,3
Mo, 17.06. 8:00 1013 + 0,5
Mo, 17.06. 2:00 1013 + 0,7
So, 16.06. 20:00 1009 + 0,1
So, 16.06. 14:00 1010 - 0,9
So, 16.06. 8:00 1012 + 0,2
So, 16.06. 2:00 1012 + 0,6
Ortszeit Luftdruck NN (hPa) Tendenz (hPa in 3 Std.)
Di, 18.06. 0:00 1016 + 1,5
Mo, 17.06. 23:50 1016 keine Meldung
Mo, 17.06. 23:40 1016 keine Meldung
Mo, 17.06. 23:30 1016 + 1,4
Mo, 17.06. 23:20 1016 keine Meldung
Mo, 17.06. 23:10 1016 keine Meldung
Mo, 17.06. 23:00 1016 + 1,4
Mo, 17.06. 22:30 1016 + 1,2
Mo, 17.06. 22:00 1015 + 0,7
Mo, 17.06. 21:30 1014 + 0,4
Mo, 17.06. 21:00 1014 + 0,2
Ortszeit Schneehöhe (cm)
Mo, 17.06. 20:00 0
Mo, 17.06. 14:00 0
Mo, 17.06. 8:00 0
Mo, 17.06. 2:00 0
So, 16.06. 20:00 0
So, 16.06. 14:00 0
So, 16.06. 8:00 0
So, 16.06. 2:00 0
Ortszeit Schneehöhe (cm)
Di, 18.06. 0:00 0
Mo, 17.06. 23:50 0
Mo, 17.06. 23:40 -
Mo, 17.06. 23:30 0
Mo, 17.06. 23:20 0
Mo, 17.06. 23:10 -
Mo, 17.06. 23:00 0
Mo, 17.06. 22:30 0
Mo, 17.06. 22:00 0
Mo, 17.06. 21:30 0
Mo, 17.06. 21:00 0
Link zu dieser Seite / Seite empfehlen

Das Wetter in ...